ONEWEB-0184, 48211

Orbit data source: Space-Track

ONEWEB-0184, 48211 is a payload satellite owned by One Web (NAA) (UK) in LEO that was launched on Sun, 25 Apr 2021 UTC via a SOYUZ-2-1B launch vehicle from the Vostochny Cosmodrome (VOSTO). Payload-class satellites include a variety of spacecraft equipped with specific instruments for various scientific and technological missions. These include communications satellites like Starlink; space stations such as the ISS; scientific satellites like the Hubble; Earth observation satellites from companies like Planet Labs, Umbra, and HawkEye 360; GPS; miniature CubeSats for education and research; and military/defense satellites.

Loading next visibility...
Identifier
48211, 2021-031B
Orbit
LEO
Country
Flag of UKUK
Related business
Manufacturer
One Web
Mission
Operational Commercial Communications
Bus & Motor
ARROW, Unknown motor
Mass
148 kg wet, ~140 kg dry
Launch date (UTC)
2021-04-25 (5 years ago)
Launch vehicle
SOYUZ-2-1B
Launch site
Vostochny Cosmodrome (VOSTO)
Object type
Payload
Rocket body
Debris
Shape & HBR
Trap Box + 2 Pan, 6.7 m
Radar Cross Section
3.464 m², Large (>1 m²)

Expand to show TLE details & history
Last TLE update: 10 hours ago

TLE from 10 hours ago
0 ONEWEB-0184
1 48211U 21031B   25306.47327231  .00000108  00000-0  25661-3 0  9990
2 48211  87.9021 334.8436 0002685 102.7917 257.3513 13.14502219218504
Epoch: 2025-11-02T11:21Z
TLE epoch observation values (Epoch: 2025-11-02T11:21:30.727Z)
Latitude
-0.00002°
Longitude
122.47707°
Altitude
1,209.133 km
Speed
7.249 km/s
True Right ascension
22h 19m 22s
True Declination
0° 00' 00"
Sunlit
Object was in daylight at epoch
Visualization orbit readout
Latitude
Unknown
Longitude
Unknown
Altitude
Unknown
Speed
Unknown
Apparent Right ascension
Unknown
Apparent Declination
Unknown
Sunlit
N/A
Visualization observer readout
Local Sidereal Time
17:00:06
Azimuth
Unknown
Elevation
Unknown
Doppler factor
Unknown
Orbital elements
Apogee altitude
1,204.942 km
Perigee altitude
1,200.871 km
Semi-major axis
7,581.043 km
Eccentricity
0.00027
Inclination
87.9021°
RAAN
334.8436°
Arg. of periapsis
102.7917°
True anomaly
257.32128°
Mean anomaly
257.3513°
Eccentric anomaly
257.33629°
Mean motion
3.28814 °/min
Orbital period
109.48 mins
BSTAR
0.00025661
Loading maneuver chart data...
Computing Atmospheric mass density...
Loading historical data...
Loading historical data...
Loading historical data...
Loading historical data...
Loading historical data...
Loading historical data...
Loading historical data...

Documentation

Showing up to 5 results
|